Weather History for Bloomington, IN

Change the Weather History Date:

Friday, February 13, 2004

  Actual Average Record
Temperature  
Mean Temperature 22 °F 32 °F  
Max Temperature 25 °F 42 °F 56 °F (2011)
Min Temperature 19 °F 23 °F 4 °F (2014)
Degree Days  
Heating Degree Days 43 33  
Month to date heating degree days 439  
Since 1 July heating degree days 3614  
Cooling Degree Days 0 0  
Month to date cooling degree days 0  
Year to date cooling degree days 0  
Moisture  
Dew Point 19 °F    
Average Humidity 86    
Maximum Humidity 93    
Minimum Humidity 78    
Precipitation  
Precipitation 0.00 in 0.11 in 0.92 in (2007)
Month to date precipitation 1.40  
Year to date precipitation 4.71  
Sea Level Pressure  
Sea Level Pressure 30.30 in    
Wind  
Wind Speed 7 mph (WSW)    
Max Wind Speed 13 mph    
Max Gust Speed -    
Visibility 6 miles    
Events Snow    
T = Trace of Precipitation, MM = Missing Value Source: NWS Daily Summary

Daily Weather History Graph

Daily Weather History Graph

Search for Another Location

Airport:

Trip Planner

Search our weather history database for the weather conditions in past years. The results will help you decide how hot, cold, wet, or windy it might be!

Date:

Astronomy

Feb. 13, 2004 Rise Set
Actual Time 7:41 AM EST 6:20 PM EST
Civil Twilight 7:13 AM EST 6:48 PM EST
Nautical Twilight 6:42 AM EST 7:19 PM EST
Astronomical Twilight 6:11 AM EST 7:50 PM EST
Moon 1:28 AM EST (2/13) 11:37 AM EST (2/13)
Length of Visible Light 11h 34m
Length of Day
10h 39m
Waning Gibbous, 48% of the Moon is Illuminated
Feb 13
Waning Gibbous
Feb 20
New
Feb 27
First Quarter
Mar 6
Full
Mar 13
Last Quarter

Hourly Weather History & Observations

Time (EST) Temp. Windchill Dew Point Humidity Pressure Visibility Wind Dir Wind Speed Gust Speed Precip Events Conditions
12:53 AM 21.9 °F 13.4 °F 19.0 °F 89% 30.34 in 8.0 mi West 6.9 mph - 0.00 in Snow Light Snow
1:53 AM 21.9 °F 14.5 °F 18.0 °F 85% 30.35 in 7.0 mi WNW 5.8 mph - 0.00 in Snow Light Snow
2:53 AM 21.0 °F 10.6 °F 18.0 °F 88% 30.35 in 7.0 mi West 9.2 mph - 0.00 in Snow Light Snow
3:53 AM 21.0 °F 9.9 °F 18.0 °F 88% 30.36 in 6.0 mi WSW 10.4 mph - 0.00 in Snow Light Snow
4:53 AM 21.0 °F 12.4 °F 18.0 °F 88% 30.35 in 6.0 mi Variable 6.9 mph - 0.00 in Snow Light Snow
5:53 AM 21.0 °F 13.4 °F 18.0 °F 88% 30.34 in 6.0 mi WSW 5.8 mph - 0.00 in Snow Light Snow
6:53 AM 19.9 °F 10.1 °F 18.0 °F 92% 30.35 in 6.0 mi West 8.1 mph - 0.00 in Snow Light Snow
7:53 AM 21.0 °F 14.6 °F 18.0 °F 88% 30.35 in 6.0 mi West 4.6 mph - N/A   Overcast
8:53 AM 19.9 °F 11.1 °F 18.0 °F 92% 30.36 in 2.0 mi West 6.9 mph - N/A   Overcast
9:02 AM 21.2 °F 14.9 °F 17.6 °F 86% 30.32 in 1.5 mi West 4.6 mph - N/A   Overcast
9:25 AM 21.2 °F 12.6 °F 19.4 °F 93% 30.32 in 2.0 mi West 6.9 mph - N/A   Overcast
9:40 AM 21.2 °F 12.6 °F 19.4 °F 93% 30.32 in 1.8 mi WSW 6.9 mph - N/A   Overcast
9:53 AM 21.0 °F 12.4 °F 18.0 °F 88% 30.36 in 2.5 mi WSW 6.9 mph - N/A   Overcast
10:25 AM 21.2 °F 11.7 °F 17.6 °F 86% 30.32 in 3.0 mi West 8.1 mph - N/A   Overcast
10:53 AM 21.9 °F 13.4 °F 18.0 °F 85% 30.35 in 2.5 mi WSW 6.9 mph - N/A   Overcast
11:04 AM 21.2 °F 12.6 °F 17.6 °F 86% 30.32 in 3.0 mi WSW 6.9 mph - N/A   Overcast
11:53 AM 21.9 °F 11.0 °F 18.0 °F 85% 30.35 in 6.0 mi WSW 10.4 mph - N/A   Overcast
12:53 PM 23.0 °F 11.7 °F 18.0 °F 81% 30.33 in 8.0 mi WSW 11.5 mph - N/A   Overcast
1:53 PM 24.1 °F 15.2 °F 19.9 °F 84% 30.30 in 9.0 mi SW 8.1 mph - N/A   Overcast
2:53 PM 25.0 °F 16.3 °F 19.0 °F 78% 30.28 in 9.0 mi SW 8.1 mph - N/A   Overcast
3:53 PM 25.0 °F 13.6 °F 19.0 °F 78% 30.27 in 9.0 mi SW 12.7 mph - N/A   Overcast
4:53 PM 25.0 °F 15.5 °F 19.9 °F 81% 30.25 in 10.0 mi SW 9.2 mph - N/A   Overcast
5:53 PM 25.0 °F 15.5 °F 19.9 °F 81% 30.25 in 7.0 mi SW 9.2 mph - N/A   Mostly Cloudy
6:53 PM 24.1 °F 17.0 °F 19.9 °F 84% 30.24 in 7.0 mi SW 5.8 mph - N/A   Mostly Cloudy
7:07 PM 24.8 °F 17.9 °F 19.4 °F 80% 30.20 in 8.0 mi SSW 5.8 mph - N/A   Scattered Clouds
7:53 PM 23.0 °F - 19.0 °F 85% 30.22 in 7.0 mi Calm Calm - N/A   Clear
8:53 PM 21.9 °F 14.5 °F 19.0 °F 89% 30.22 in 8.0 mi SSW 5.8 mph - N/A   Clear
9:53 PM 23.0 °F 13.1 °F 19.9 °F 88% 30.22 in 8.0 mi SW 9.2 mph - N/A   Clear
10:53 PM 23.0 °F 14.7 °F 19.9 °F 88% 30.20 in 7.0 mi SW 6.9 mph - N/A   Clear
11:53 PM 24.1 °F 14.4 °F 19.9 °F 84% 30.19 in 8.0 mi SW 9.2 mph - N/A   Clear